Total_Precipitation_Accumulation
0.11 0.12 0.14 0.18 0.20 0.21 0.27 0.33 0.38 0.53 0.67 0.75 0.87 1.07 1.23 1.39 1.52 1.65 1.54 1.41 1.36 1.50 1.57 1.48 1.50 1.43 1.22 1.12 1.08 1.01 0.89 0.61 0.38 0.36 0.28 0.15 0.08 0.08 0.07 0.07 0.05 0.05 0.05
0.07 0.06 0.06 0.09 0.10 0.11 0.15 0.22 0.29 0.40 0.52 0.65 0.88 1.10 1.38 1.46 1.52 1.66 1.73 1.66 1.59 1.71 1.71 1.78 1.79 1.76 1.68 1.55 1.35 1.29 1.32 1.01 0.65 0.65 0.75 0.49 0.29 0.15 0.11 0.10 0.09 0.09 0.08
0.06 0.04 0.04 0.05 0.07 0.07 0.09 0.16 0.26 0.42 0.62 0.84 1.13 1.41 1.65 1.71 1.74 1.67 1.75 1.84 1.89 1.93 1.93 1.98 1.99 1.93 1.74 1.66 1.67 1.64 1.84 1.55 1.09 0.84 0.91 0.74 0.56 0.36 0.17 0.13 0.15 0.14 0.12
0.08 0.06 0.06 0.07 0.08 0.10 0.15 0.24 0.38 0.58 0.85 1.18 1.51 1.73 1.95 2.03 1.85 1.83 1.87 1.87 1.83 1.86 1.95 1.95 1.92 1.87 1.76 1.78 1.82 1.74 1.94 1.99 1.59 1.20 0.88 0.65 0.55 0.54 0.39 0.24 0.20 0.20 0.16
0.14 0.12 0.13 0.15 0.19 0.24 0.31 0.46 0.68 0.98 1.25 1.47 1.64 1.85 1.97 1.95 1.91 1.87 1.87 1.80 1.77 1.75 1.76 1.75 1.79 1.80 1.81 1.84 1.97 1.99 2.12 2.04 1.92 1.59 1.35 1.14 0.88 0.62 0.58 0.52 0.35 0.27 0.21
0.19 0.21 0.23 0.29 0.36 0.40 0.54 0.71 0.89 1.16 1.33 1.44 1.56 1.73 1.86 1.89 1.89 1.86 1.87 1.85 1.81 1.70 1.63 1.62 1.65 1.75 1.87 1.89 1.93 2.00 2.16 2.18 2.14 1.90 1.60 1.44 1.26 1.05 0.94 0.73 0.57 0.45 0.31
0.27 0.28 0.38 0.52 0.60 0.64 0.72 0.86 0.94 1.10 1.20 1.24 1.33 1.46 1.52 1.56 1.60 1.57 1.53 1.47 1.42 1.39 1.42 1.52 1.58 1.69 1.81 1.85 1.89 1.97 1.96 2.02 2.19 2.14 1.89 1.62 1.36 1.24 1.11 0.99 0.76 0.60 0.39
0.42 0.54 0.67 0.77 0.84 0.85 0.81 0.82 0.95 0.99 0.97 0.99 1.00 1.12 1.18 1.23 1.27 1.25 1.21 1.22 1.24 1.26 1.22 1.27 1.37 1.55 1.73 1.80 1.81 1.76 1.73 1.77 1.91 1.92 1.89 1.81 1.52 1.34 1.17 1.09 1.11 0.93 0.71
0.66 0.89 1.07 1.18 1.26 1.17 0.98 0.83 0.83 0.82 0.80 0.84 0.88 0.92 0.99 1.02 1.02 1.04 0.99 1.07 1.08 1.04 0.98 1.00 1.08 1.17 1.39 1.60 1.70 1.59 1.50 1.48 1.56 1.62 1.69 1.76 1.72 1.56 1.39 1.32 1.23 1.14 0.94
1.09 1.34 1.59 1.70 1.68 1.49 1.22 0.94 0.79 0.74 0.70 0.72 0.76 0.81 0.84 0.85 0.81 0.84 0.79 0.82 0.87 0.87 0.86 0.84 0.87 0.98 1.09 1.27 1.44 1.48 1.42 1.38 1.38 1.47 1.59 1.68 1.75 1.76 1.54 1.40 1.31 1.14 0.99
1.52 1.66 1.81 1.86 1.60 1.42 1.17 0.92 0.77 0.79 0.78 0.78 0.77 0.77 0.74 0.70 0.69 0.69 0.66 0.64 0.66 0.66 0.71 0.83 0.85 0.90 0.97 1.11 1.31 1.43 1.42 1.34 1.33 1.33 1.38 1.48 1.55 1.73 1.66 1.52 1.37 1.22 1.06
1.27 1.35 1.41 1.36 1.32 1.27 1.10 0.94 0.85 0.85 0.88 0.88 0.86 0.78 0.69 0.64 0.64 0.62 0.55 0.52 0.48 0.47 0.57 0.65 0.68 0.71 0.73 0.86 1.06 1.22 1.25 1.21 1.14 1.11 1.17 1.33 1.47 1.67 1.76 1.71 1.57 1.44 1.29
1.10 1.10 1.10 1.11 1.14 1.11 0.99 0.97 0.94 0.94 0.94 0.92 0.82 0.74 0.67 0.58 0.53 0.48 0.44 0.48 0.47 0.51 0.58 0.63 0.68 0.69 0.70 0.69 0.73 0.84 0.95 0.95 0.91 0.89 0.89 0.94 1.06 1.29 1.48 1.57 1.60 1.60 1.51
0.86 0.87 0.91 0.94 1.03 1.00 0.96 0.91 0.87 0.92 1.01 1.06 0.96 0.85 0.73 0.62 0.56 0.49 0.44 0.42 0.43 0.46 0.49 0.50 0.57 0.66 0.67 0.63 0.62 0.64 0.68 0.68 0.69 0.70 0.75 0.80 0.82 0.93 1.06 1.18 1.37 1.59 1.58
0.55 0.60 0.64 0.64 0.62 0.59 0.61 0.63 0.69 0.80 0.94 1.08 1.07 0.93 0.74 0.61 0.54 0.49 0.43 0.40 0.40 0.40 0.43 0.46 0.48 0.54 0.61 0.66 0.66 0.54 0.49 0.51 0.52 0.52 0.53 0.58 0.66 0.71 0.76 0.82 1.08 1.37 1.50
0.33 0.31 0.32 0.33 0.34 0.31 0.28 0.27 0.33 0.48 0.73 0.99 0.97 0.75 0.58 0.46 0.41 0.41 0.39 0.35 0.34 0.37 0.41 0.41 0.43 0.52 0.53 0.63 0.60 0.44 0.39 0.41 0.46 0.51 0.46 0.42 0.44 0.48 0.51 0.56 0.67 0.87 1.08
0.20 0.20 0.20 0.20 0.20 0.19 0.18 0.19 0.26 0.38 0.54 0.64 0.60 0.51 0.40 0.38 0.41 0.43 0.37 0.34 0.33 0.34 0.37 0.38 0.39 0.43 0.53 0.54 0.38 0.36 0.35 0.40 0.44 0.47 0.51 0.46 0.39 0.43 0.42 0.47 0.50 0.49 0.56
0.11 0.11 0.12 0.13 0.15 0.16 0.19 0.22 0.27 0.34 0.38 0.40 0.40 0.34 0.30 0.31 0.34 0.35 0.34 0.39 0.44 0.41 0.41 0.43 0.43 0.42 0.47 0.43 0.31 0.32 0.33 0.40 0.44 0.50 0.58 0.60 0.53 0.52 0.58 0.53 0.53 0.48 0.44
0.04 0.03 0.03 0.03 0.05 0.05 0.06 0.08 0.10 0.12 0.12 0.12 0.13 0.12 0.12 0.13 0.14 0.16 0.22 0.33 0.40 0.42 0.44 0.47 0.48 0.43 0.39 0.38 0.28 0.28 0.35 0.41 0.47 0.49 0.54 0.60 0.57 0.67 0.70 0.64 0.73 0.68 0.57
0.01 0.00 0.00 0.00 0.00 0.00 0.00 0.00 0.00 0.01 0.01 0.01 0.01 0.01 0.02 0.02 0.03 0.06 0.08 0.15 0.19 0.24 0.32 0.34 0.37 0.40 0.38 0.45 0.33 0.31 0.35 0.43 0.51 0.54 0.54 0.68 0.66 0.68 0.65 0.56 0.73 0.73 0.63
0.00 0.00 0.00 0.00 0.00 0.00 0.00 0.00 0.00 0.00 0.00 0.00 0.00 0.00 0.00 0.00 0.01 0.02 0.03 0.06 0.08 0.12 0.17 0.21 0.27 0.34 0.39 0.46 0.43 0.45 0.46 0.49 0.59 0.60 0.56 0.53 0.63 0.50 0.51 0.51 0.52 0.67 0.62
0.00 0.00 0.00 0.00 0.00 0.00 0.00 0.00 0.00 0.00 0.00 0.00 0.00 0.00 0.00 0.00 0.01 0.01 0.02 0.02 0.03 0.06 0.09 0.11 0.15 0.22 0.27 0.33 0.38 0.38 0.41 0.45 0.55 0.61 0.53 0.52 0.58 0.43 0.41 0.42 0.48 0.55 0.58
0.00 0.00 0.00 0.00 0.00 0.00 0.00 0.00 0.00 0.00 0.00 0.00 0.00 0.00 0.00 0.01 0.01 0.01 0.01 0.02 0.03 0.05 0.06 0.09 0.15 0.21 0.28 0.29 0.25 0.22 0.23 0.27 0.41 0.46 0.48 0.49 0.45 0.40 0.36 0.36 0.42 0.47 0.51
0.00 0.00 0.00 0.00 0.00 0.00 0.00 0.00 0.00 0.00 0.00 0.00 0.00 0.00 0.01 0.01 0.01 0.02 0.03 0.03 0.04 0.05 0.09 0.13 0.18 0.23 0.26 0.28 0.25 0.26 0.27 0.26 0.31 0.32 0.32 0.35 0.37 0.40 0.39 0.35 0.38 0.44 0.49
0.00 0.00 0.00 0.00 0.00 0.00 0.00 0.00 0.00 0.00 0.00 0.00 0.00 0.00 0.00 0.01 0.01 0.01 0.01 0.02 0.03 0.04 0.10 0.17 0.21 0.21 0.21 0.15 0.14 0.24 0.34 0.40 0.46 0.52 0.46 0.45 0.45 0.43 0.38 0.35 0.35 0.38 0.41
0.00 0.00 0.00 0.00 0.00 0.00 0.00 0.00 0.00 0.00 0.00 0.00 0.00 0.00 0.00 0.01 0.01 0.01 0.01 0.01 0.02 0.05 0.07 0.07 0.09 0.10 0.09 0.09 0.10 0.16 0.26 0.34 0.44 0.59 0.63 0.63 0.64 0.59 0.50 0.40 0.33 0.28 0.28